Other Public Products
Issued by NWS Grand Forks, ND

Home | Current Version | Previous Version | Graphics & Text | Print | Product List | Glossary On
Versions: 1 2 3 4 5 6 7 8 9 10 11 12 13 14 15 16 17 18 19 20 21 22 23 24 25 26 27 28 29 30 31 32 33 34 35 36 37 38 39 40 41 42 43 44 45 46 47 48 49 50
276
FPUS83 KFGF 280110
OPUFGF
PRAIRIE TO PINES WEATHER ROUNDUP
NATIONAL WEATHER SERVICE EASTERN NORTH DAKOTA/GRAND FORKS ND
800 PM CDT SAT MAY 27 2017

 **SATELLITE DATA USED TO AUGMENT SKY COVER AT AUTOMATED STATIONS**
 *****  WEATHER ACROSS EASTERN NORTH DAKOTA  *****

CITY           SKY/WX    TMP DP  RH WIND       PRES   REMARKS
GRAND FORKS    PTSUNNY   71  48  43 CALM      29.67F
GRAND FORKS AF PTSUNNY   69  41  36 NW7       29.69F
GRAND CITY NWS NOT AVBL
BUXTON         NOT AVBL
DEVILS LAKE    FAIR      54  48  80 NW10      29.79S
FARGO          FAIR      73  38  27 SW13      29.71F
WAHPETON ARPT  FAIR      70  37  30 SW14G22   29.76S
$$

 *****  WEATHER ACROSS CENTRAL AND WESTERN NORTH DAKOTA  *****

CITY           SKY/WX    TMP DP  RH WIND       PRES   REMARKS
JAMESTOWN      PTSUNNY   58  45  62 N24G36    29.80R
BISMARCK       FAIR      66  44  45 N7        29.84S
MINOT          FAIR      62  44  51 NW8       29.81S
MINOT AFB      FAIR      62  46  57 NW5       29.80S
GARRISON         N/A     63  41  44 N13       29.82S
WILLISTON      FAIR      74  33  22 NW18G33   29.85R
DICKINSON      FAIR      65  36  34 W29G39    29.87R
HETTINGER      FAIR      67  39  35 NW18      29.93S
$$

 *****  OTHER OBSERVATIONS NORTHEAST NORTH DAKOTA  *****

CITY           SKY/WX    TMP DP  RH WIND       PRES   REMARKS
WALHALLA       NOT AVBL
LANGDON        MOCLDY    52  48  87 W23       29.76R
CAVALIER       LGT RAIN  63  48  59 NW13G20   29.69S
GRAFTON        MOCLDY    61  54  77 CALM      29.72R
CANDO          NOT AVBL
FORT TOTTEN      N/A     54  50  85 W2        29.95S
ROLLA          FAIR      57  45  62 N10       29.78S
RUGBY          NOT AVBL
 ***** THE ABOVE OBSERVATIONS ARE NON NWS ARE NOT QUALITY
        CONTROLLED AND MAY MIS-REPORT RAIN FOR SNOW...
$$

 *****  OTHER OBSERVATIONS SOUTHEAST NORTH DAKOTA *****

CITY           SKY/WX    TMP DP  RH WIND       PRES   REMARKS
COOPERSTOWN    FAIR      57  45  62 NW28G38   29.80R
VALLEY CITY    MOCLDY    66  43  42 NW30G40   29.79R
OAKES          NOT AVBL
GWINNER        PTCLDY    72  39  30 MISG      29.76S
SHEYENNE NWR     N/A     73  40  29 W8        29.95S
BUFFALO        NOT AVBL
WYNDMERE         N/A     73  37  27 W12         N/A
 ***** THE ABOVE OBSERVATIONS ARE NON NWS ARE NOT QUALITY
       CONTROLLED AND MAY MIS-REPORT RAIN FOR SNOW...
$$

  *****  WEATHER ACROSS NORTHERN MINNESOTA  *****

CITY           SKY/WX    TMP DP  RH WIND       PRES   REMARKS
FLAG ISLAND    FAIR      64  43  45 CALM      29.67S
WARROAD        FAIR      66  45  45 SW6       29.70S
ROSEAU         FAIR      64  46  52 SW5       29.69F
HALLOCK        LGT RAIN  66  43  42 CALM      29.69S
THF RVR FALLS  MOCLDY    60  49  66 N6        29.72F
HALSTAD          N/A     71  41  34 W9          N/A
FOSSTON        MOCLDY    66  37  34 CALM      29.73S
BAUDETTE       FAIR      64  42  44 SW6       29.70F
WASKISH        FAIR      64  45  48 CALM      29.72R
CROOKSTON      FAIR      63  50  63 NE3       29.71S
$$
  *****  WEATHER ACROSS CENTRAL AND WEST MINNESOTA  *****

CITY           SKY/WX    TMP DP  RH WIND       PRES   REMARKS
BEMIDJI        LGT RAIN  62  48  59 N7        29.75R
PARK RAPIDS    FAIR      67  38  34 S9        29.76S
WADENA         FAIR      66  43  42 SW7       29.78S
DETROIT LAKES  FAIR      68  43  40 SW7G16    29.76S
MOORHEAD       FAIR      75  36  23 W16       29.72F
FERGUS FALLS   CLOUDY    66  46  48 SW14G20   29.75S
ELBOW LAKE     FAIR      68  46  45 SW14      29.79S
MORRIS MN      FAIR      70  46  43 SW8       29.80S
STAPLES        FAIR      68  37  32 SW8       29.79S
WHEATON        FAIR      72  36  26 SW13G21   29.80S
$$
  *****  WEATHER ELSEWHERE ACROSS MINNESOTA  *****

CITY           SKY/WX    TMP DP  RH WIND       PRES   REMARKS
DULUTH         FAIR      68  42  38 SW8       29.79S
INTRNTL FALLS  MOCLDY    67  39  35 W8        29.72F
ELY            FAIR      70  36  28 SW8       29.75S
CLOQUET        FAIR      68  37  32 SW7       29.80R
BRAINERD       FAIR      67  44  43 S8        29.80S
HIBBING        FAIR      68  39  34 SW7       29.76S
ALEXANDRIA     FAIR      68  44  42 SW7       29.82F
SAINT CLOUD    FAIR      67  46  47 SW6       29.83S
MINNEAPOLIS    MOCLDY    70  46  42 SW7       29.86S
$$

  *****  WEATHER ACROSS SOUTH DAKOTA  *****

CITY           SKY/WX    TMP DP  RH WIND       PRES   REMARKS
SIOUX FALLS    MOCLDY    65  50  58 W3        29.91R
BROOKINGS      FAIR      64  48  56 W7        29.91R
WATERTOWN      FAIR      63  46  54 SW14      29.85S
HURON          MOCLDY    69  42  37 W8        29.85S
SISSETON         N/A     70  46  42 SW13      29.78F
ABERDEEN       FAIR      69  37  30 N10       29.81R
MITCHELL       FAIR      69  47  45 SW9       29.90S
PIERRE         FAIR      71  39  31 NW10      29.88R
MOBRIDGE       FAIR      68  40  35 W9        29.82F
RAPID CITY     PTSUNNY   68  34  28 NW14      30.00R
$$

  *****  SOME WEATHER IN NEARBY STATES *****

CITY           SKY/WX    TMP DP  RH WIND       PRES   REMARKS
GLASGOW MT     PTSUNNY   75  32  20 NW21G28   29.93R
GREAT FALLS MT CLOUDY    69  37  30 N7        30.10S
CHEYENNE WY    FAIR      56  31  38 N12G20    30.20R
SCOTTSBLUFF NE FAIR      62  43  49 CALM      30.10F
OMAHA NE       MOCLDY    69  54  58 NE5       29.89S
DES MOINES IA  MOCLDY    65  56  72 NE7       29.86F
DAVENPORT IA   FAIR      69  62  78 NE9       29.82F
CHICAGO IL     MOCLDY    70  53  54 E7        29.84F
EAU CLAIRE WI  FAIR      66  47  50 SW6       29.86S
LA CROSSE WI   LGT RAIN  62  56  80 N3        29.88S
$$

  *****  SOME NATIONAL WEATHER *****

CITY           SKY/WX    TMP DP  RH WIND       PRES   REMARKS
LA GUARDIA NY  FAIR      65  55  70 VRB5      29.89R
RALEIGH NC     MOCLDY    77  67  71 SW8       29.87S
ATLANTA GA     FAIR      77  69  76 SW6       29.98S
NEW ORLEANS LA FAIR      82  75  79 S7        29.96F
OKLAHOMA CITY  FAIR      88  57  34 NW10      29.71F
ALBUQUERQUE NM FAIR      81   7   6 W13G24    30.01S
SALT LAKE CITY FAIR      70  38  31 NW8       30.19F
LOS ANGELES CA FAIR      65  55  70 W16       30.03S
BOISE ID       FAIR      76  33  21 W7        30.14S
SEATTLE WA     FAIR      85  43  22 N7        30.05S
$$

*** WEATHER ACROSS MANITOBA...SASKATCHEWAN AND ONTARIO ***
                ***ONTARIO***

CITY           SKY/WX    TMP DP  RH WIND       PRES   REMARKS
GERALDTON      MOCLDY    66  50  55 S12G17    29.72F
THUNDER BAY    MOCLDY    63  48  59 NE5       29.73R
SIOUX LOOKOUT  NOT AVBL
TORONTO        MOCLDY    59  52  77 E5        29.89F
BIG TROUT LK   MOCLDY    57  46  67 W10G18      N/A
PICKLE LAKE    MOCLDY    68  41  37 SW8       29.67F
DRYDEN         MOCLDY    63  45  51 NW5       29.71F
KENORA         PTCLDY    64  39  39 VRB2      29.70S
$$
                *** MANITOBA***

CITY           SKY/WX    TMP DP  RH WIND       PRES   REMARKS
BRANDON        MOSUNNY   63  43  48 NW14      29.75R
DAUPHIN        CLOUDY    57  52  82 N13G18    29.76R
ISLAND LAKE    NOT AVBL
PILOT MOUND      N/A     52  46  82 SW9         N/A
THE PAS        CLOUDY    46  45  93 N13G21    29.77R
THOMPSON       CLOUDY    52  46  82 NW8       29.69R
WINNIPEG       PTSUNNY   64  45  48 NW16      29.69S
LYNN LAKE      CLOUDY    43  41  93 N10G17    29.80R
CHURCHILL      LGT RAIN  36  34  93 NE10      29.78S
GILLAM         LGT RAIN  48  46  93 NE6       29.67R
$$
                ***SASKATCHEWAN***

CITY           SKY/WX    TMP DP  RH WIND       PRES   REMARKS
ESTEVAN        MOSUNNY   66  37  34 NW26G32   29.82R
KINDERSLEY     MOSUNNY   72  36  26 N17G25    29.95R
LLOYDMINSTER   MOSUNNY   72  39  30 N10G20    29.95R
PRINCE ALBERT  MOSUNNY   66  43  42 N16G22    29.86R
REGINA         MOSUNNY   68  36  30 N18G29    29.84R
YORKTON          N/A     61  43  51 NW16G25   29.80R



USA.gov is the U.S. government's official web portal to all federal, state and local government web resources and services.